Torna al catalogo

DELTA 1 DEB

AttivoPO
NORAD 8968·DEBRIS·🇺🇸 United States

Lanciato Jan 22, 1975 da Vandenberg Space Force Base

Loading…

Prossimi Passaggi (prossime 24 ore)

TLE

AggiornatoSource: Space-Track

Epoca: Sep 14, 2026, 06:42 UTC

1 08968U 75004BA  26257.27979180  .00000249  00000-0  10442-3 0  9991
2 08968  97.6617 208.5136 0130321 183.5667 176.4601 14.28393797621096

Traccia DELTA 1 DEB in tempo reale con AllMySat

Download on the App Store